Regional Weather Roundup
Issued by NWS

Home | Current Version | Previous Version | Graphics & Text | Print | Product List | Glossary On
Versions: 1 2 3 4 5 6 7 8 9 10 11 12 13 14 15 16 17 18 19 20 21 22 23 24 25 26 27 28
000
ASUS45 KPSR 292110
RWRAZ

ARIZONA HOURLY REGIONAL WEATHER ROUNDUP
NATIONAL WEATHER SERVICE PHOENIX AZ
200 PM MST WED MAR 29 2017

NOTE: FAIR INDICATES FEW OR NO CLOUDS BELOW 12,000 FEET WITH NO
SIGNIFICANT WEATHER AND/OR OBSTRUCTIONS TO VISIBILITY.

AZZ001>003-036-292200-
NORTHWEST ARIZONA

CITY           SKY/WX    TMP DP  RH WIND       PRES   REMARKS
BULLHEAD CITY  MOSUNNY   77  21  12 N20       30.02F
KINGMAN        SUNNY     70 -10   4 NW8       30.10F
$$

AZZ004>008-015-016-018-292200-
NORTH CENTRAL ARIZONA

CITY           SKY/WX    TMP DP  RH WIND       PRES   REMARKS
GRAND CANYON   SUNNY     59  15  18 N9        30.17F
WILLIAMS       SUNNY     61   9  12 NE8G20    30.16F
PRESCOTT       SUNNY     66  23  19 SW9G17    30.10F
FLAGSTAFF      SUNNY     59   1   9 VRB7      30.15S
PAYSON         SUNNY     66   9  10 N12G18    30.09F
PAGE           SUNNY     66  19  16 VRB6      30.08F
$$

AZZ009>014-017-292200-
NORTHEAST ARIZONA

CITY           SKY/WX    TMP DP  RH WIND       PRES   REMARKS
WINSLOW        SUNNY     67  19  16 NW15G24   30.07F
SAINT JOHNS    SUNNY     60  29  30 NW17G28   30.05F
WINDOW ROCK    SUNNY     60  23  24 VRB7G22   30.04F
SHOW LOW       SUNNY     54  19  26 N13G21    30.11F
$$

AZZ023-292200-
GREATER PHOENIX AREA

CITY           SKY/WX    TMP DP  RH WIND       PRES   REMARKS
PHOENIX        MOSUNNY   81  26  13 VRB5G18   29.91F
BUCKEYE        SUNNY     82  23  11 W10G16    29.95F
GLENDALE       MOSUNNY   82  23  11 W9        29.94F
LUKE AFB       SUNNY     83  24  12 SW8       29.92F
DEER VALLEY    SUNNY     83  24  11 W21G26    29.92F
SCOTTSDALE     SUNNY     81  26  13 W9        29.93F
MESA-FALCON    SUNNY    N/A N/A N/A W17G29    29.92F
MESA-GATEWAY   MOSUNNY   79  30  17 W10       29.96F
CHANDLER       SUNNY     81  25  12 W14       29.94F
$$

AZZ027-028-292200-
SOUTHWEST MARICOPA COUNTY AND PINAL COUNTY

CITY           SKY/WX    TMP DP  RH WIND       PRES   REMARKS
CASA GRANDE    NOT AVBL
GILA BEND      MOSUNNY   81  24  12 W12       29.94F
$$

AZZ503-504-507>509-292200-
SOUTHEAST ARIZONA

CITY           SKY/WX    TMP DP  RH WIND       PRES   REMARKS
TUCSON         SUNNY     75  26  16 NW9G21    30.00F
DAVIS-MONTHAN  SUNNY     74  28  18 W8        29.98F
RYAN FIELD     SUNNY     73  27  17 NW9       30.00F
NOGALES        SUNNY     74  21  13 NW15G28   30.01F
SIERRA VISTA   SUNNY     69  20  15 NW8G22    30.05F
DOUGLAS        SUNNY     72  25  17 N16       30.01F
SAFFORD        SUNNY     72  29  20 NW6G23    29.96F
$$

AZZ020-021-025-026-031-292200-
SOUTHWEST ARIZONA

CITY           SKY/WX    TMP DP  RH WIND       PRES   REMARKS
YUMA           MOSUNNY   85  22  10 N7G18     29.97F
$$

CAZ031-033-041-043-047-048-061-292200-
SOUTHERN CALIFORNIA

CITY           SKY/WX    TMP DP  RH WIND       PRES   REMARKS
DOWNTOWN L.A.  SUNNY     79  45  29 CALM      30.02S
L.A. AIRPORT   MOSUNNY   72  52  49 W10       30.04S
SAN DIEGO      SUNNY     76  35  22 NW9       30.04F
BURBANK        SUNNY     81  35  19 S8        30.02F
ONTARIO        MOSUNNY   84  27  12 W10       30.02F
RIVERSIDE      SUNNY     85  31  14 VRB6      30.01F
PALM SPRINGS   SUNNY     90  22   8 VRB6      29.99F
EL CENTRO NAS  MOSUNNY   86  18   8 NW10      30.00F
IMPERIAL       SUNNY     84  33  16 W9        29.98F
BLYTHE         SUNNY     84  21  10 NW10G21   29.98F
NEEDLES        MOSUNNY   82  21  10 NE16      30.02F
$$

NVZ020-UTZ003-292200-
SOUTHERN NEVADA-UTAH

CITY           SKY/WX    TMP DP  RH WIND       PRES   REMARKS
LAS VEGAS      MOSUNNY   72  20  14 NE8       30.08F
SALT LAKE CITY MOSUNNY   56  32  40 VRB7      30.18F
$$

NMZ009-TXZ055-292200-
NEW MEXICO-WEST TEXAS

CITY           SKY/WX    TMP DP  RH WIND       PRES   REMARKS
ALBUQUERQUE    CLOUDY    59  34  39 N10       29.97F
EL PASO        PTSUNNY   67  29  24 N13G25    29.97R
$$


........................KEY........................
SKY/WX - SKY CONDITION/WEATHER
TMP    - TEMPERATURE IN FAHRENHEIT
DP     - DEW POINT IN FAHRENHEIT
RH     - RELATIVE HUMIDITY IN PERCENT
WIND   - DIRECTION AND SPEED IN MILES PER HOUR (MPH)
VRB    - VARIABLE WIND DIRECTION
PRES   - MEAN SEA LEVEL PRESSURE IN INCHES OF MERCURY
         F - FALLING PRESSURE   R - RISING PRESSURE
         S - STEADY PRESSURE
VSB    - VISIBILITY IN MILES
HX     - HEAT INDEX IN FAHRENHEIT
WCI    - WIND CHILL INDEX IN FAHRENHEIT
TC     - TEMPERATURE IN CELSIUS WHICH IS ALSO KNOWN AS
         TEMPERATURE IN CENTIGRADE
AFB    - AIR FORCE BASE
         LUKE AFB IS LUKE AIR FORCE BASE
         DAVIS-MONTHAN IS DAVIS-MONTHAN AIR FORCE BASE
NAS    - NAVAL AIR STATION
         EL CENTRO NAS IS EL CENTRO NAVAL AIR STATION
N/A    - NOT AVAILABLE





USA.gov is the U.S. government's official web portal to all federal, state and local government web resources and services.